| time (UTC) | temp C | wind direction | speed KPH | gust KPH | rain 1hr cm | rain 24hr cm | rain mn cm | humidity % | barometer mb |
| 20260508020055 | 8 | 165 | 0.0 | 3.2 | 0.00 | 0.38 | 0.33 | 56 | 1006.2 |
| 20260508014551 | 9 | 163 | 0.0 | 4.8 | 0.00 | 0.46 | 0.33 | 58 | 1005.9 |
| 20260508013051 | 9 | 167 | 0.0 | 1.6 | 0.00 | 0.46 | 0.33 | 54 | 1006.0 |
| 20260508011556 | 10 | 167 | 0.0 | 3.2 | 0.00 | 0.46 | 0.33 | 51 | 1005.8 |
| 20260508010048 | 10 | 169 | 0.0 | 3.2 | 0.00 | 0.46 | 0.33 | 52 | 1005.5 |
| 20260508004554 | 10 | 103 | 0.0 | 0.0 | 0.00 | 0.48 | 0.33 | 52 | 1005.2 |
| 20260508003047 | 11 | 101 | 0.0 | 4.8 | 0.00 | 0.48 | 0.33 | 50 | 1005.0 |
| 20260508001549 | 11 | 98 | 0.0 | 3.2 | 0.00 | 0.48 | 0.33 | 45 | 1004.7 |
| 20260508000045 | 12 | 78 | 0.0 | 4.8 | 0.00 | 0.48 | 0.33 | 45 | 1004.6 |
| 20260507234545 | 12 | 84 | 0.0 | 4.8 | 0.00 | 0.48 | 0.33 | 45 | 1004.5 |
| 20260507233057 | 13 | 160 | 0.0 | 3.2 | 0.00 | 0.48 | 0.33 | 42 | 1004.3 |
| 20260507231543 | 13 | 181 | 0.0 | 3.2 | 0.00 | 0.48 | 0.33 | 42 | 1004.0 |
| 20260507230043 | 14 | 87 | 0.0 | 9.7 | 0.00 | 0.48 | 0.33 | 37 | 1003.8 |
| 20260507224553 | 15 | 51 | 1.6 | 6.4 | 0.00 | 0.53 | 0.33 | 35 | 1003.6 |
| 20260507223042 | 16 | 69 | 1.6 | 6.4 | 0.00 | 0.53 | 0.33 | 34 | 1003.4 |
| 20260507221541 | 16 | 68 | 8.0 | 22.5 | 0.00 | 0.53 | 0.33 | 32 | 1003.3 |
| 20260507220040 | 16 | 20 | 1.6 | 17.7 | 0.00 | 0.53 | 0.33 | 34 | 1003.2 |
| 20260507214541 | 16 | 355 | 3.2 | 16.1 | 0.00 | 0.69 | 0.33 | 30 | 1003.2 |
| 20260507213041 | 17 | 330 | 3.2 | 16.1 | 0.00 | 0.69 | 0.33 | 31 | 1003.1 |
| 20260507211539 | 16 | 23 | 4.8 | 17.7 | 0.00 | 0.69 | 0.33 | 32 | 1003.1 |
| 20260507210044 | 16 | 350 | 11.3 | 24.1 | 0.00 | 0.69 | 0.33 | 30 | 1003.0 |
| 20260507204532 | 16 | 297 | 11.3 | 30.6 | 0.00 | 0.84 | 0.33 | 29 | 1002.9 |
| 20260507203027 | 17 | 9 | 3.2 | 20.9 | 0.00 | 0.84 | 0.33 | 33 | 1002.7 |
| 20260507201522 | 17 | 344 | 6.4 | 19.3 | 0.00 | 0.84 | 0.33 | 33 | 1002.7 |
| 20260507200018 | 17 | 30 | 8.0 | 25.7 | 0.00 | 0.84 | 0.33 | 36 | 1002.7 |
| 20260507194514 | 17 | 328 | 8.0 | 19.3 | 0.00 | 1.17 | 0.33 | 31 | 1002.7 |
| 20260507193014 | 17 | 307 | 6.4 | 20.9 | 0.00 | 1.17 | 0.33 | 34 | 1002.9 |
| 20260507191507 | 17 | 351 | 4.8 | 17.7 | 0.00 | 1.17 | 0.33 | 40 | 1003.1 |
| 20260507190101 | 17 | 46 | 6.4 | 29.0 | 0.00 | 1.17 | 0.33 | 44 | 1002.9 |
| 20260507184556 | 16 | 273 | 11.3 | 20.9 | 0.00 | 1.27 | 0.33 | 45 | 1003.0 |
| 20260507183051 | 16 | 5 | 1.6 | 29.0 | 0.00 | 1.27 | 0.33 | 51 | 1003.1 |
| 20260507181553 | 16 | 344 | 3.2 | 24.1 | 0.00 | 1.27 | 0.33 | 46 | 1003.1 |
| 20260507180043 | 16 | 331 | 6.4 | 19.3 | 0.00 | 1.27 | 0.33 | 48 | 1003.1 |
| 20260507174547 | 16 | 287 | 3.2 | 17.7 | 0.00 | 1.27 | 0.33 | 51 | 1003.2 |
| 20260507173049 | 16 | 24 | 11.3 | 20.9 | 0.00 | 1.27 | 0.33 | 49 | 1003.5 |
| 20260507171540 | 16 | 302 | 6.4 | 27.4 | 0.00 | 1.27 | 0.33 | 48 | 1003.5 |
| 20260507170024 | 16 | 16 | 9.7 | 30.6 | 0.00 | 1.27 | 0.33 | 52 | 1003.5 |
| 20260507164522 | 16 | 47 | 9.7 | 17.7 | 0.00 | 1.27 | 0.33 | 48 | 1003.6 |
| 20260507163014 | 15 | 325 | 0.0 | 16.1 | 0.00 | 1.27 | 0.33 | 56 | 1003.8 |
| 20260507161510 | 15 | 360 | 1.6 | 14.5 | 0.00 | 1.27 | 0.33 | 59 | 1004.0 |
| 20260507160008 | 15 | 271 | 6.4 | 17.7 | 0.00 | 1.27 | 0.33 | 55 | 1004.4 |
| 20260507154502 | 15 | 5 | 3.2 | 14.5 | 0.00 | 1.27 | 0.33 | 55 | 1004.5 |
| 20260507153101 | 15 | 332 | 8.0 | 17.7 | 0.00 | 1.27 | 0.33 | 55 | 1004.6 |
| 20260507151559 | 15 | 13 | 4.8 | 9.7 | 0.00 | 1.27 | 0.33 | 59 | 1004.6 |
| 20260507150057 | 15 | 142 | 1.6 | 9.7 | 0.00 | 1.27 | 0.33 | 61 | 1004.6 |
| 20260507144548 | 15 | 79 | 1.6 | 8.0 | 0.00 | 1.27 | 0.33 | 59 | 1004.9 |
| 20260507143043 | 14 | 238 | 1.6 | 17.7 | 0.00 | 1.27 | 0.33 | 61 | 1005.0 |
| 20260507141535 | 14 | 342 | 4.8 | 14.5 | 0.00 | 1.27 | 0.33 | 62 | 1005.2 |
| 20260507140030 | 13 | 355 | 1.6 | 12.9 | 0.00 | 1.27 | 0.33 | 68 | 1005.4 |
| 20260507134528 | 13 | 355 | 3.2 | 12.9 | 0.00 | 1.27 | 0.33 | 71 | 1005.5 |
| 20260507133022 | 12 | 29 | 1.6 | 12.9 | 0.00 | 1.27 | 0.33 | 72 | 1005.5 |
| 20260507131526 | 12 | 28 | 3.2 | 16.1 | 0.00 | 1.27 | 0.33 | 71 | 1005.5 |
| 20260507130013 | 12 | 30 | 4.8 | 9.7 | 0.00 | 1.27 | 0.33 | 43 | 1005.6 |
| 20260507124516 | 11 | 46 | 1.6 | 8.0 | 0.00 | 1.27 | 0.33 | 1 | 1005.8 |
| 20260507123010 | 10 | 329 | 1.6 | 12.9 | 0.00 | 1.27 | 0.33 | 1 | 1005.7 |
| 20260507121508 | 10 | 329 | 0.0 | 4.8 | 0.00 | 1.27 | 0.33 | 1 | 1005.7 |
| 20260507120025 | 9 | 57 | 1.6 | 8.0 | 0.00 | 1.27 | 0.33 | 1 | 1005.9 |
| 20260507114508 | 8 | 347 | 0.0 | 3.2 | 0.00 | 1.27 | 0.33 | 1 | 1005.6 |
| 20260507113024 | 8 | 345 | 0.0 | 3.2 | 0.00 | 1.27 | 0.33 | 1 | 1005.9 |
| 20260507111501 | 8 | 355 | 0.0 | 3.2 | 0.00 | 1.27 | 0.33 | 1 | 1006.1 |
| 20260507110104 | 7 | 18 | 0.0 | 1.6 | 0.00 | 1.27 | 0.33 | 1 | 1005.8 |
| 20260507104553 | 7 | 30 | 0.0 | 3.2 | 0.00 | 1.27 | 0.33 | 1 | 1006.4 |
| 20260507103048 | 7 | 33 | 0.0 | 3.2 | 0.00 | 1.27 | 0.33 | 1 | 1006.2 |
| 20260507101544 | 7 | 33 | 0.0 | 3.2 | 0.00 | 1.27 | 0.33 | 1 | 1006.2 |
| 20260507100041 | 7 | 51 | 1.6 | 4.8 | 0.00 | 1.27 | 0.33 | 1 | 1006.1 |
| 20260507094535 | 7 | 52 | 0.0 | 1.6 | 0.00 | 1.27 | 0.33 | 1 | 1005.3 |
| 20260507093030 | 7 | 52 | 0.0 | 1.6 | 0.00 | 1.27 | 0.33 | 1 | 1005.0 |
| 20260507091527 | 7 | 52 | 0.0 | 1.6 | 0.00 | 1.27 | 0.33 | 1 | 1005.1 |
| 20260507090022 | 8 | 52 | 0.0 | 1.6 | 0.00 | 1.27 | 0.33 | 1 | 1005.6 |
| 20260507084517 | 8 | 52 | 0.0 | 3.2 | 0.00 | 1.27 | 0.33 | 1 | 1005.8 |
| 20260507083014 | 8 | 78 | 1.6 | 3.2 | 0.00 | 1.27 | 0.33 | 1 | 1005.1 |
| 20260507081508 | 8 | 71 | 0.0 | 0.0 | 0.00 | 1.27 | 0.33 | 1 | 1005.6 |
| 20260507080005 | 8 | 75 | 0.0 | 0.0 | 0.00 | 1.27 | 0.33 | 1 | 1005.1 |
| 20260507074606 | 8 | 75 | 0.0 | 0.0 | 0.00 | 1.27 | 0.33 | 1 | 1005.0 |
| 20260507073133 | 9 | 75 | 0.0 | 0.0 | 0.00 | 1.27 | 0.33 | 1 | 1005.1 |
| 20260507071551 | 9 | 75 | 0.0 | 0.0 | 0.00 | 1.27 | 0.33 | 1 | 1004.9 |
| 20260507070047 | 9 | 75 | 0.0 | 0.0 | 0.00 | 1.27 | 0.33 | 1 | 1004.7 |
| 20260507064557 | 9 | 75 | 0.0 | 0.0 | 0.00 | 1.27 | 0.33 | 1 | 1004.4 |
| 20260507063046 | 9 | 75 | 0.0 | 1.6 | 0.00 | 1.27 | 0.33 | 1 | 1004.4 |
| 20260507061538 | 10 | 78 | 0.0 | 3.2 | 0.03 | 1.27 | 0.33 | 1 | 1004.1 |
| 20260507060029 | 10 | 79 | 0.0 | 3.2 | 0.03 | 1.27 | 0.33 | 1 | 1004.2 |
| 20260507054525 | 10 | 78 | 0.0 | 1.6 | 0.05 | 1.27 | 0.33 | 1 | 1004.2 |
| 20260507053024 | 10 | 207 | 0.0 | 4.8 | 0.13 | 1.27 | 0.33 | 1 | 1004.1 |
| 20260507051516 | 11 | 110 | 0.0 | 3.2 | 0.23 | 1.24 | 0.30 | 1 | 1004.1 |
| 20260507050011 | 11 | 44 | 0.0 | 3.2 | 0.30 | 1.24 | 0.30 | 1 | 1003.9 |
| 20260507044509 | 11 | 290 | 0.0 | 4.8 | 0.30 | 1.22 | 0.28 | 1 | 1004.0 |
| 20260507043003 | 11 | 71 | 3.2 | 12.9 | 0.23 | 1.14 | 0.20 | 1 | 1003.9 |
| 20260507041608 | 11 | 21 | 0.0 | 4.8 | 0.13 | 1.02 | 0.08 | 1 | 1004.2 |
| 20260507040105 | 11 | 66 | 0.0 | 1.6 | 0.05 | 0.94 | 0.00 | 1 | 1003.5 |
| 20260507034608 | 11 | 66 | 1.6 | 8.0 | 0.03 | 0.91 | 0.91 | 1 | 1003.4 |
| 20260507033102 | 11 | 249 | 0.0 | 4.8 | 0.03 | 0.91 | 0.91 | 1 | 1002.9 |
| 20260507031541 | 11 | 242 | 3.2 | 9.7 | 0.00 | 0.89 | 0.89 | 1 | 1003.0 |
| 20260507030038 | 11 | 231 | 1.6 | 12.9 | 0.00 | 0.89 | 0.89 | 1 | 1002.8 |
| 20260507024533 | 11 | 211 | 3.2 | 11.3 | 0.00 | 0.89 | 0.89 | 1 | 1003.2 |
| 20260507023029 | 11 | 309 | 4.8 | 14.5 | 0.03 | 0.89 | 0.89 | 1 | 1003.3 |
| 20260507021525 | 11 | 261 | 6.4 | 16.1 | 0.05 | 0.89 | 0.89 | 1 | 1003.4 |